National Weather Service Raw Text Product

Displaying AFOS PIL: RWRIA Received: 2018-12-06 19:00 UTC


481 
ASUS43 KDMX 061906
RWRIA 

WEATHER ROUNDUP FOR IOWA
NATIONAL WEATHER SERVICE DES MOINES IA
100 PM CST THU DEC 06 2018

NOTE: "FAIR" INDICATES FEW OR NO CLOUDS BELOW 12,000 FEET WITH NO
SIGNIFICANT WEATHER AND/OR OBSTRUCTIONS TO VISIBILITY.

* - THESE STATIONS ARE NOT NWS STATIONS...THUS NOT UNDER NWS
QUALITY CONTROL.  THEY ALSO DO NOT REPORT WEATHER SUCH 
AS PRECIPITATION OR FOG.  

IAZ001>003-012>014-020>022-031>034-043>046-062000-
   NORTHWEST IOWA
  
CITY           SKY/WX    TMP DP  RH WIND       PRES   REMARKS
CARROLL *      PTSUNNY   23  18  80 N13       30.39S WCI  11          
CHEROKEE *     CLOUDY    23  16  75 N9        30.41S WCI  13          
DENISON *      PTSUNNY   23  16  74 N8        30.42S WCI  14          
LE MARS *      CLOUDY    23  16  74 NW5       30.42F WCI  17          
ORANGE CITY *  FLURRIES  23  19  86 NW7       30.40S WCI  15          
SHELDON *      CLOUDY    19  14  79 NE9       30.39S WCI   9          
SIOUX CITY     CLOUDY    24  17  74 W6        30.43F WCI  17          
SPENCER        PTSUNNY   19  11  70 NW14      30.40S WCI   6          
STORM LAKE *     N/A     19  14  79 N12       30.38S WCI   7          
$$
 
IAZ055>058-069>071-079>083-090>094-062000-
   SOUTHWEST IOWA
  
CITY           SKY/WX    TMP DP  RH WIND       PRES   REMARKS
ATLANTIC *     PTSUNNY   21  18  86 N8        30.41S WCI  12          
AUDUBON *      SUNNY     23  16  74 NW5       30.40R WCI  17          
CLARINDA *     CLOUDY    25  18  74 N10G16    30.44S WCI  15          
COUNCIL BLFS * SUNNY     21  19  93 N10       30.41S WCI  10          
CRESTON *      PTSUNNY   25  16  68 N12       30.39S WCI  14          
HARLAN  *        N/A    N/A N/A N/A MISG        N/A                   
LAMONI         MOSUNNY   28  17  63 N13       30.36S WCI  17          
RED OAK *      CLOUDY    23  18  80 N13       30.43S WCI  11          
SHENANDOAH *   CLOUDY    23  18  80 N13       30.44S WCI  11          
$$
 
IAZ047>049-059>061-072>074-084-062000-
   CENTRAL IOWA
  
CITY           SKY/WX    TMP DP  RH WIND       PRES   REMARKS
AMES           PTSUNNY   25  16  68 NW14G23   30.38S WCI  13          
ANKENY *       PTSUNNY   27  16  63 N16       30.40R WCI  14          
BOONE *        CLOUDY    23  18  80 N13       30.36S WCI  11          
CHARITON *     MOSUNNY   27  18  69 N13       30.36S WCI  16          
DES MOINES     MOSUNNY   27  15  61 NW12      30.38S WCI  17          
GRINNELL*      SUNNY     27  17  68 NW13      30.36S WCI  16          
KNOXVILLE *    PTSUNNY   27  19  74 N14       30.36S WCI  15          
MARSHALLTOWN   MOSUNNY   25  15  66 N10       30.36S WCI  15          
NEWTON *       MOSUNNY   25  16  68 N14G22    30.36S WCI  13          
PELLA *        MOSUNNY   28  17  63 N13       30.38R WCI  18          
PERRY *        CLOUDY    24  17  73 NW15      30.39S WCI  12          
$$
 
IAZ004>006-015-016-023>025-035-036-062000-
   NORTH CENTRAL IOWA
  
CITY           SKY/WX    TMP DP  RH WIND       PRES   REMARKS
ALGONA *       SUNNY     18  10  73 NW14G21   30.37S WCI   4          
CLARION *      PTSUNNY   21  16  79 NW16      30.37S WCI   7          
ESTHERVILLE    SUNNY     16   8  71 NW13      30.39R WCI   2          
FORT DODGE *   MOSUNNY   24  15  68 N9G16     30.39S WCI  14          
MASON CITY     PTSUNNY   20  14  77 NW15      30.37R WCI   6          
FOREST CITY *  FAIR      21  14  73 NW15      30.36S WCI   8          
WEBSTER CITY * MOSUNNY   23  14  68 NW15      30.36S WCI  10          
IOWA FALLS *   CLOUDY    23  17  76 NW14      30.37S WCI  11          
$$

IAZ007>011-017>019-026>030-037>042-050>054-066-062000-
   NORTHEAST IOWA
  
CITY           SKY/WX    TMP DP  RH WIND       PRES   REMARKS
CEDAR RAPIDS   FAIR      27  17  66 NW13      30.33R WCI  16          
CHARLES CITY * FLURRIES  19  14  79 NW15      30.35R WCI   5          
CLINTON *      FAIR      31  18  58 NW10      30.31S WCI  22          
DECORAH *      CLOUDY    21  14  73 N12G17    30.30F WCI   9          
DUBUQUE        FAIR      26  14  60 NW12      30.28S WCI  16          
MONTICELLO *   FAIR      27  16  63 NW13      30.31S WCI  16          
WATERLOO       FAIR      25  14  63 NW14      30.36R WCI  13          
$$
 
IAZ064-065-067-068-078-062000-
   EAST CENTRAL IOWA
  
CITY           SKY/WX    TMP DP  RH WIND       PRES   REMARKS
DAVENPORT      FAIR      29  17  61 NW12      30.33S HAZE    WCI  19  
IOWA CITY      FAIR      29  15  56 NW14G22   30.36R WCI  18          
MT. PLEASANT * SUNNY     32  21  64 N14       30.34R WCI  22          
MUSCATINE *    FAIR      30  16  55 NW9       30.35R WCI  22          
QUAD CITIES    FAIR      31  18  58 NW9       30.31S WCI  23          
$$
 
IAZ062-063-075>077-085>089-095>099-062000-
   SOUTHEAST IOWA
  
CITY           SKY/WX    TMP DP  RH WIND       PRES   REMARKS
BURLINGTON     MOSUNNY   30  19  63 NW9       30.32S WCI  22          
FAIRFIELD *    SUNNY     28  18  64 N10G18    30.34S WCI  19          
FORT MADISON * SUNNY     28  21  74 NW10      30.33S WCI  19          
KEOKUK *       MOSUNNY   30  19  64 NW8G16    30.33S WCI  23          
OSKALOOSA *    FAIR      28  18  65 N13       30.36F WCI  17          
CENTERVILLE *  FAIR      27  19  74 N14       30.36S WCI  15          
OTTUMWA        MOSUNNY   29  17  61 NW9       30.35S WCI  20          
WASHINGTON *   MOSUNNY   28  21  74 NW14      30.36R WCI  17          
$$

ABBREVIATIONS USED IN REMARKS
   TC - TEMPERATURES IN CELSIUS
  WCI - WIND CHILL INDEX
   HX - HEAT INDEX
  VSB - VISIBILITY  
$$

  

417 
ASUS43 KDMX 061901
RWRIA 

WEATHER ROUNDUP FOR IOWA
NATIONAL WEATHER SERVICE DES MOINES IA
100 PM CST THU DEC 06 2018

NOTE: "FAIR" INDICATES FEW OR NO CLOUDS BELOW 12,000 FEET WITH NO
SIGNIFICANT WEATHER AND/OR OBSTRUCTIONS TO VISIBILITY.

* - THESE STATIONS ARE NOT NWS STATIONS...THUS NOT UNDER NWS
QUALITY CONTROL.  THEY ALSO DO NOT REPORT WEATHER SUCH 
AS PRECIPITATION OR FOG.  

IAZ001>003-012>014-020>022-031>034-043>046-062000-
   NORTHWEST IOWA
  
CITY           SKY/WX    TMP DP  RH WIND       PRES   REMARKS
CARROLL *      PTSUNNY   23  18  80 N13       30.39S WCI  11          
CHEROKEE *     CLOUDY    23  16  75 N9        30.41S WCI  13          
DENISON *      PTSUNNY   23  16  74 N8        30.42S WCI  14          
LE MARS *      CLOUDY    23  16  74 NW5       30.42F WCI  17          
ORANGE CITY *  FLURRIES  23  19  86 NW7       30.40S WCI  15          
SHELDON *      CLOUDY    19  14  79 NE9       30.39S WCI   9          
SIOUX CITY     CLOUDY    24  17  74 W6        30.43F WCI  17          
SPENCER        PTSUNNY   19  11  70 NW14      30.40S WCI   6          
STORM LAKE *     N/A     19  14  79 N12       30.38S WCI   7          
$$
 
IAZ055>058-069>071-079>083-090>094-062000-
   SOUTHWEST IOWA
  
CITY           SKY/WX    TMP DP  RH WIND       PRES   REMARKS
ATLANTIC *     PTSUNNY   21  18  86 N8        30.41S WCI  12          
AUDUBON *      SUNNY     23  16  74 NW5       30.40R WCI  17          
CLARINDA *     CLOUDY    25  18  74 N10G16    30.44S WCI  15          
COUNCIL BLFS * SUNNY     21  19  93 N10       30.41S WCI  10          
CRESTON *      PTSUNNY   25  16  68 N12       30.39S WCI  14          
HARLAN  *        N/A    N/A N/A N/A MISG        N/A                   
LAMONI         MOSUNNY   28  17  63 N13       30.36S WCI  17          
RED OAK *      CLOUDY    23  18  80 N13       30.43S WCI  11          
SHENANDOAH *   CLOUDY    23  18  80 N13       30.44S WCI  11          
$$
 
IAZ047>049-059>061-072>074-084-062000-
   CENTRAL IOWA
  
CITY           SKY/WX    TMP DP  RH WIND       PRES   REMARKS
AMES           PTSUNNY   25  16  68 NW14G23   30.38S WCI  13          
ANKENY *       PTSUNNY   27  16  63 N16       30.40R WCI  14          
BOONE *        CLOUDY    23  18  80 N13       30.36S WCI  11          
CHARITON *     MOSUNNY   27  18  69 N13       30.36S WCI  16          
DES MOINES     MOSUNNY   27  15  61 NW12      30.38S WCI  17          
GRINNELL*      SUNNY     27  17  68 NW13      30.36S WCI  16          
KNOXVILLE *    PTSUNNY   27  19  74 N14       30.36S WCI  15          
MARSHALLTOWN   MOSUNNY   25  15  66 N10       30.36S WCI  15          
NEWTON *       MOSUNNY   25  16  68 N14G22    30.36S WCI  13          
PELLA *        MOSUNNY   28  17  63 N13       30.38R WCI  18          
PERRY *        CLOUDY    24  17  73 NW15      30.39S WCI  12          
$$
 
IAZ004>006-015-016-023>025-035-036-062000-
   NORTH CENTRAL IOWA
  
CITY           SKY/WX    TMP DP  RH WIND       PRES   REMARKS
ALGONA *       SUNNY     18  10  73 NW14G21   30.37S WCI   4          
CLARION *      PTSUNNY   21  16  79 NW16      30.37S WCI   7          
ESTHERVILLE    SUNNY     16   8  71 NW13      30.39R WCI   2          
FORT DODGE *   MOSUNNY   24  15  68 N9G16     30.39S WCI  14          
MASON CITY     PTSUNNY   20  14  77 NW15      30.37R WCI   6          
FOREST CITY *  FAIR      21  14  73 NW15      30.36S WCI   8          
IOWA FALLS *   CLOUDY    23  17  76 NW14      30.37S WCI  11          
$$

IAZ007>011-017>019-026>030-037>042-050>054-066-062000-
   NORTHEAST IOWA
  
CITY           SKY/WX    TMP DP  RH WIND       PRES   REMARKS
CEDAR RAPIDS   FAIR      27  17  66 NW13      30.33R WCI  16          
CHARLES CITY * FLURRIES  19  14  79 NW15      30.35R WCI   5          
CLINTON *      FAIR      31  18  58 NW10      30.31S WCI  22          
DECORAH *      CLOUDY    21  14  73 N12G17    30.30F WCI   9          
DUBUQUE        FAIR      26  14  60 NW12      30.28S WCI  16          
MONTICELLO *   FAIR      27  16  63 NW13      30.31S WCI  16          
WATERLOO       PTSUNNY   25  14  63 NW15G21   30.35S WCI  13          
$$
 
IAZ064-065-067-068-078-062000-
   EAST CENTRAL IOWA
  
CITY           SKY/WX    TMP DP  RH WIND       PRES   REMARKS
DAVENPORT      FAIR      29  17  61 NW12      30.33S HAZE    WCI  19  
IOWA CITY      FAIR      29  15  56 NW14G22   30.36R WCI  18          
MT. PLEASANT * SUNNY     32  21  64 N14       30.34R WCI  22          
MUSCATINE *    FAIR      30  16  55 NW9       30.35R WCI  22          
QUAD CITIES    FAIR      31  18  58 NW9       30.31S WCI  23          
$$
 
IAZ062-063-075>077-085>089-095>099-062000-
   SOUTHEAST IOWA
  
CITY           SKY/WX    TMP DP  RH WIND       PRES   REMARKS
BURLINGTON     MOSUNNY   30  19  63 NW9       30.32S WCI  22          
FAIRFIELD *    SUNNY     28  18  64 N10G18    30.34S WCI  19          
FORT MADISON * SUNNY     28  21  74 NW10      30.33S WCI  19          
KEOKUK *       MOSUNNY   30  19  64 NW8G16    30.33S WCI  23          
OSKALOOSA *    FAIR      28  18  65 N13       30.36F WCI  17          
OTTUMWA        MOSUNNY   29  17  61 NW9       30.35S WCI  20          
WASHINGTON *   MOSUNNY   28  21  74 NW14      30.36R WCI  17          
$$

ABBREVIATIONS USED IN REMARKS
   TC - TEMPERATURES IN CELSIUS
  WCI - WIND CHILL INDEX
   HX - HEAT INDEX
  VSB - VISIBILITY  
$$